Sacramento / Mc Clellan, CA

4:45 PM PDT on March 25, 2017 (GMT -0700)
McClellan

Weather History for KMCC - January, 2013

Change the Weather History Date:

Friday, January 25, 2013

  Actual Average (KMHR) Record (KMHR)
Temperature  
Mean Temperature 56 °F -  
Max Temperature 62 °F 52 °F 71 °F (2014)
Min Temperature 50 °F 38 °F 32 °F (2002)
Degree Days  
Heating Degree Days 9    
Growing Degree Days 6 (Base 50)    
Moisture  
Dew Point 52 °F    
Average Humidity 90    
Maximum Humidity 100    
Minimum Humidity 68    
Precipitation  
Precipitation 0.00 in - - ()
Sea Level Pressure  
Sea Level Pressure 30.14 in    
Wind  
Wind Speed 2 mph (NW)    
Max Wind Speed 7 mph    
Max Gust Speed -    
Visibility 6 miles    
Events Fog    
Averages and records for this station are not official NWS values.
T = Trace of Precipitation, MM = Missing Value Source: NWS Daily Summary

Daily Weather History Graph

Daily Weather History Graph

Search for Another Location

Airport or City:

Trip Planner

Search our weather history database for the weather conditions in past years. The results will help you decide how hot, cold, wet, or windy it might be!

Date:

Astronomy

Jan. 25, 2013 Rise Set
Actual Time 7:16 AM PST 5:19 PM PST
Civil Twilight 6:48 AM PST 5:48 PM PST
Nautical Twilight 6:16 AM PST 6:20 PM PST
Astronomical Twilight 5:44 AM PST 6:51 PM PST
Moon 4:22 PM PST 5:59 AM PST
Length of Visible Light 11h 00m
Length of Day
10h 03m
Waxing Gibbous, 98% of the Moon is Illuminated
Jan 25
Waxing Gibbous
Jan 26
Full
Feb 3
Last Quarter
Feb 9
New
Feb 17
First Quarter

Hourly Weather History & Observations

Time (PST) Temp. Dew Point Humidity Pressure Visibility Wind Dir Wind Speed Gust Speed Precip Events Conditions
12:10 AM 51.8 °F 50.0 °F 94% 30.22 in 2.0 mi Calm Calm - N/A   Overcast
12:30 AM 51.8 °F 50.0 °F 94% 30.21 in 1.8 mi Calm Calm - N/A   Overcast
12:50 AM 51.8 °F 50.0 °F 94% 30.20 in 2.5 mi Calm Calm - N/A   Overcast
1:10 AM 51.8 °F 50.0 °F 94% 30.21 in 2.0 mi Calm Calm - N/A   Overcast
1:30 AM 51.8 °F 51.8 °F 100% 30.21 in 2.5 mi Calm Calm - N/A   Overcast
1:50 AM 51.8 °F 51.8 °F 100% 30.21 in 1.8 mi Calm Calm - N/A   Overcast
2:10 AM 51.8 °F 51.8 °F 100% 30.21 in 1.8 mi Calm Calm - N/A   Overcast
2:30 AM 51.8 °F 51.8 °F 100% 30.21 in 1.2 mi West 3.5 mph - N/A   Overcast
2:50 AM 51.8 °F 51.8 °F 100% 30.21 in 1.5 mi WNW 4.6 mph - N/A   Overcast
3:10 AM 51.8 °F 51.8 °F 100% 30.21 in 1.0 mi Calm Calm - N/A   Overcast
3:30 AM 51.8 °F 51.8 °F 100% 30.20 in 0.8 mi Calm Calm - N/A   Overcast
3:50 AM 50.0 °F 50.0 °F 100% 30.19 in 0.8 mi ESE 3.5 mph - N/A   Mostly Cloudy
4:10 AM 50.0 °F 50.0 °F 100% 30.19 in 0.5 mi Calm Calm - N/A Fog Fog
4:30 AM 51.8 °F 50.0 °F 94% 30.19 in 0.2 mi WNW 5.8 mph - N/A Fog Fog
4:50 AM 51.8 °F 50.0 °F 94% 30.19 in 0.5 mi NW 4.6 mph - N/A Fog Fog
5:10 AM 51.8 °F 50.0 °F 94% 30.20 in 0.2 mi NW 5.8 mph - N/A Fog Fog
5:30 AM 51.8 °F 50.0 °F 94% 30.20 in 0.5 mi NW 4.6 mph - N/A Fog Fog
5:50 AM 51.8 °F 50.0 °F 94% 30.20 in 0.2 mi NNW 3.5 mph - N/A Fog Fog
6:10 AM 51.8 °F 50.0 °F 94% 30.20 in 0.2 mi Calm Calm - N/A Fog Fog
6:30 AM 51.8 °F 50.0 °F 94% 30.20 in 0.2 mi Calm Calm - N/A Fog Fog
6:50 AM 51.8 °F 51.8 °F 100% - 0.2 mi North - - N/A Fog Fog
7:10 AM 51.8 °F 51.8 °F 100% 30.20 in 0.5 mi Calm Calm - N/A Fog Fog
7:30 AM 51.8 °F 51.8 °F 100% 30.20 in 0.2 mi NNE 3.5 mph - N/A Fog Fog
7:50 AM 51.8 °F 51.8 °F 100% 30.19 in 0.2 mi East 4.6 mph - N/A Fog Fog
8:10 AM 53.6 °F 53.6 °F 100% 30.18 in 2.0 mi Calm Calm - N/A   Mostly Cloudy
8:30 AM 53.6 °F 53.6 °F 100% 30.19 in 2.0 mi Calm Calm - N/A   Clear
8:50 AM 53.6 °F 53.6 °F 100% 30.19 in 2.5 mi Calm Calm - N/A   Partly Cloudy
9:10 AM 53.6 °F 53.6 °F 100% 30.20 in 2.5 mi WNW 5.8 mph - N/A   Scattered Clouds
9:30 AM 53.6 °F 53.6 °F 100% 30.19 in 0.2 mi WNW 5.8 mph - N/A Fog Fog
9:50 AM 53.6 °F 53.6 °F 100% 30.19 in 0.2 mi WNW 6.9 mph - N/A Fog Fog
10:10 AM 53.6 °F 53.6 °F 100% 30.20 in 1.0 mi West 5.8 mph - N/A   Overcast
10:30 AM 53.6 °F 53.6 °F 100% 30.19 in 0.5 mi West 3.5 mph - N/A Fog Fog
10:50 AM 53.6 °F 53.6 °F 100% 30.19 in 0.5 mi NW 6.9 mph - N/A Fog Fog
11:10 AM 55.4 °F 55.4 °F 100% 30.18 in 2.5 mi NNW 3.5 mph - N/A   Overcast
11:30 AM 55.4 °F 53.6 °F 94% 30.17 in 3.0 mi NNW 3.5 mph - N/A   Mostly Cloudy
11:50 AM 57.2 °F 55.4 °F 94% 30.16 in 5.0 mi WNW 4.6 mph - N/A   Partly Cloudy
12:10 PM 59.0 °F 55.4 °F 88% 30.15 in 8.0 mi NW 3.5 mph - N/A   Partly Cloudy
12:30 PM - - N/A% 30.13 in 10.0 mi WNW 5.8 mph - N/A   Unknown
12:50 PM 60.8 °F 53.6 °F 77% 30.13 in 10.0 mi WNW 6.9 mph - N/A   Unknown
1:10 PM 60.8 °F 53.6 °F 77% 30.11 in 10.0 mi Calm Calm - N/A   Clear
1:30 PM 62.6 °F 53.6 °F 72% 30.11 in 10.0 mi Calm Calm - N/A   Partly Cloudy
1:50 PM 62.6 °F 51.8 °F 68% 30.10 in 10.0 mi WNW 4.6 mph - N/A   Partly Cloudy
2:10 PM 62.6 °F 53.6 °F 72% 30.10 in 9.0 mi WNW 5.8 mph - N/A   Clear
2:30 PM 62.6 °F 53.6 °F 72% 30.10 in 10.0 mi NW 6.9 mph - N/A   Clear
2:50 PM 62.6 °F 53.6 °F 72% 30.09 in 10.0 mi WNW 5.8 mph - N/A   Clear
3:10 PM 62.6 °F 53.6 °F 72% 30.09 in 10.0 mi West 3.5 mph - N/A   Clear
3:30 PM 62.6 °F 53.6 °F 72% 30.08 in 10.0 mi NW 4.6 mph - N/A   Clear
3:50 PM 62.6 °F 51.8 °F 68% 30.08 in 10.0 mi West 5.8 mph - N/A   Clear
4:10 PM 62.6 °F 53.6 °F 72% 30.07 in 10.0 mi WNW 5.8 mph - N/A   Clear
4:30 PM 62.6 °F 53.6 °F 72% 30.07 in 10.0 mi NW 4.6 mph - N/A   Clear
4:50 PM 60.8 °F 51.8 °F 72% 30.07 in 10.0 mi NNW 4.6 mph - N/A   Clear
5:10 PM 59.0 °F 51.8 °F 77% 30.07 in 10.0 mi NNW 3.5 mph - N/A   Clear
5:30 PM 59.0 °F 51.8 °F 77% 30.07 in 10.0 mi Calm Calm - N/A   Clear
5:50 PM 57.2 °F 51.8 °F 82% 30.07 in 10.0 mi NNW 3.5 mph - N/A   Clear
6:10 PM 57.2 °F 51.8 °F 82% 30.07 in 10.0 mi Calm Calm - N/A   Partly Cloudy
6:30 PM 55.4 °F 51.8 °F 88% 30.07 in 10.0 mi Calm Calm - N/A   Mostly Cloudy
6:50 PM 55.4 °F 51.8 °F 88% 30.06 in 10.0 mi Calm Calm - N/A   Mostly Cloudy
7:10 PM 55.4 °F 51.8 °F 88% 30.06 in 10.0 mi Calm Calm - N/A   Mostly Cloudy
7:30 PM 57.2 °F 51.8 °F 82% 30.06 in 10.0 mi Calm Calm - N/A   Mostly Cloudy
7:50 PM 55.4 °F 53.6 °F 94% 30.06 in 10.0 mi West 4.6 mph - N/A   Mostly Cloudy
8:10 PM 55.4 °F 51.8 °F 88% 30.06 in 10.0 mi Calm Calm - N/A   Partly Cloudy
8:30 PM 55.4 °F 51.8 °F 88% 30.06 in 10.0 mi West 5.8 mph - N/A   Clear
8:50 PM 55.4 °F 53.6 °F 94% 30.06 in 10.0 mi NW 3.5 mph - N/A   Scattered Clouds
9:10 PM 55.4 °F 53.6 °F 94% 30.06 in 10.0 mi Calm Calm - N/A   Partly Cloudy
9:30 PM 55.4 °F 53.6 °F 94% 30.07 in 10.0 mi Calm Calm - N/A   Clear
9:50 PM 55.4 °F 53.6 °F 94% 30.07 in 10.0 mi Calm Calm - N/A   Mostly Cloudy
10:10 PM 55.4 °F 51.8 °F 88% 30.07 in 10.0 mi South 3.5 mph - N/A   Mostly Cloudy
10:30 PM 55.4 °F 51.8 °F 88% 30.07 in 10.0 mi Calm Calm - N/A   Mostly Cloudy
10:50 PM 53.6 °F 51.8 °F 94% 30.07 in 10.0 mi Calm Calm - N/A   Overcast
11:10 PM 53.6 °F 51.8 °F 94% 30.07 in 10.0 mi SE 3.5 mph - N/A   Overcast
11:30 PM 53.6 °F 51.8 °F 94% 30.06 in 10.0 mi SSE 4.6 mph - N/A   Overcast
11:50 PM 53.6 °F 51.8 °F 94% 30.06 in 8.0 mi SE 3.5 mph - N/A   Mostly Cloudy